QPF
0.00 0.00 0.00 0.00 0.00 0.00 0.00 0.00 0.00 0.00 0.00 0.00 0.00 0.00 0.00 0.00 0.00 0.00 0.00 0.00 0.00 0.00 0.00 0.00 0.00 0.01 0.01 0.01 0.00 0.03 0.02 0.05 0.06 0.04 0.02 0.00 0.00 0.00 0.00 0.00 0.00 0.00 0.00 0.00
0.00 0.00 0.00 0.00 0.00 0.00 0.00 0.00 0.00 0.00 0.00 0.00 0.00 0.00 0.00 0.00 0.00 0.00 0.00 0.00 0.00 0.00 0.00 0.00 0.00 0.00 0.00 0.00 0.02 0.10 0.07 0.06 0.09 0.07 0.05 0.02 0.01 0.00 0.00 0.00 0.00 0.00 0.00 0.00
0.00 0.00 0.00 0.00 0.00 0.00 0.00 0.00 0.00 0.00 0.00 0.00 0.00 0.00 0.00 0.00 0.00 0.00 0.00 0.00 0.00 0.00 0.00 0.00 0.00 0.00 0.00 0.00 0.00 0.04 0.10 0.07 0.09 0.04 0.03 0.02 0.00 0.00 0.00 0.00 0.00 0.00 0.00 0.00
0.00 0.00 0.00 0.00 0.00 0.00 0.00 0.00 0.00 0.00 0.00 0.00 0.00 0.00 0.00 0.00 0.00 0.00 0.00 0.00 0.00 0.00 0.00 0.00 0.00 0.00 0.00 0.00 0.01 0.02 0.03 0.04 0.04 0.05 0.03 0.02 0.01 0.00 0.00 0.00 0.00 0.00 0.00 0.00
0.00 0.00 0.00 0.00 0.00 0.00 0.00 0.00 0.00 0.00 0.00 0.00 0.00 0.00 0.00 0.00 0.00 0.00 0.00 0.00 0.00 0.00 0.00 0.00 0.00 0.00 0.00 0.00 0.00 0.01 0.01 0.00 0.02 0.03 0.03 0.02 0.01 0.00 0.00 0.00 0.00 0.00 0.00 0.00
0.00 0.00 0.00 0.00 0.00 0.00 0.00 0.00 0.00 0.00 0.00 0.00 0.00 0.00 0.00 0.00 0.00 0.00 0.00 0.00 0.00 0.00 0.00 0.00 0.00 0.00 0.00 0.00 0.00 0.00 0.00 0.00 0.01 0.01 0.00 0.00 0.00 0.00 0.00 0.00 0.00 0.00 0.00 0.00
0.00 0.00 0.00 0.00 0.00 0.00 0.00 0.00 0.00 0.00 0.00 0.00 0.00 0.00 0.00 0.00 0.00 0.00 0.00 0.00 0.00 0.00 0.00 0.00 0.00 0.00 0.00 0.00 0.00 0.00 0.00 0.00 0.00 0.00 0.00 0.00 0.00 0.00 0.00 0.00 0.00 0.00 0.00 0.00
0.00 0.00 0.00 0.00 0.00 0.00 0.00 0.00 0.00 0.00 0.00 0.00 0.00 0.00 0.00 0.00 0.00 0.00 0.00 0.00 0.00 0.00 0.00 0.00 0.00 0.00 0.00 0.00 0.00 0.00 0.00 0.00 0.00 0.00 0.00 0.00 0.00 0.00 0.00 0.00 0.00 0.00 0.00 0.00
0.00 0.00 0.00 0.00 0.00 0.00 0.00 0.00 0.00 0.00 0.00 0.00 0.00 0.00 0.00 0.00 0.00 0.00 0.00 0.00 0.00 0.00 0.00 0.00 0.00 0.00 0.00 0.00 0.00 0.00 0.00 0.00 0.00 0.00 0.00 0.00 0.00 0.00 0.00 0.00 0.00 0.00 0.00 0.00
0.00 0.00 0.00 0.00 0.00 0.00 0.00 0.00 0.00 0.00 0.00 0.00 0.00 0.00 0.00 0.00 0.00 0.00 0.00 0.00 0.00 0.00 0.00 0.00 0.00 0.00 0.00 0.00 0.00 0.00 0.00 0.00 0.00 0.00 0.00 0.00 0.00 0.00 0.00 0.00 0.00 0.00 0.00 0.00
0.00 0.00 0.00 0.00 0.00 0.00 0.00 0.00 0.00 0.00 0.00 0.00 0.00 0.00 0.00 0.00 0.00 0.00 0.00 0.00 0.00 0.00 0.00 0.00 0.00 0.00 0.00 0.00 0.00 0.00 0.00 0.00 0.00 0.00 0.00 0.00 0.00 0.00 0.00 0.00 0.00 0.00 0.00 0.00
0.00 0.00 0.00 0.00 0.00 0.00 0.00 0.00 0.00 0.00 0.00 0.00 0.00 0.00 0.00 0.00 0.00 0.00 0.00 0.00 0.00 0.00 0.00 0.00 0.00 0.00 0.00 0.00 0.00 0.00 0.00 0.00 0.00 0.00 0.00 0.00 0.00 0.00 0.00 0.00 0.00 0.00 0.00 0.00
0.00 0.00 0.00 0.00 0.00 0.00 0.00 0.00 0.00 0.00 0.00 0.00 0.00 0.00 0.00 0.00 0.00 0.00 0.00 0.00 0.00 0.00 0.00 0.00 0.00 0.00 0.00 0.00 0.00 0.00 0.00 0.00 0.00 0.00 0.00 0.00 0.00 0.00 0.00 0.00 0.00 0.00 0.00 0.00
0.00 0.00 0.00 0.00 0.00 0.00 0.00 0.00 0.00 0.00 0.00 0.00 0.00 0.00 0.00 0.00 0.00 0.00 0.00 0.00 0.00 0.00 0.00 0.00 0.00 0.00 0.00 0.00 0.00 0.00 0.00 0.00 0.00 0.00 0.00 0.00 0.00 0.00 0.00 0.00 0.00 0.00 0.00 0.00
0.00 0.00 0.00 0.00 0.00 0.00 0.00 0.00 0.00 0.00 0.00 0.00 0.00 0.00 0.00 0.00 0.00 0.00 0.00 0.00 0.00 0.00 0.00 0.00 0.00 0.00 0.00 0.00 0.00 0.00 0.00 0.00 0.00 0.00 0.00 0.00 0.00 0.00 0.00 0.00 0.00 0.00 0.00 0.00
0.00 0.00 0.00 0.00 0.00 0.00 0.00 0.00 0.00 0.00 0.00 0.00 0.00 0.00 0.00 0.00 0.00 0.00 0.00 0.00 0.00 0.00 0.00 0.00 0.00 0.00 0.00 0.00 0.00 0.00 0.00 0.00 0.00 0.00 0.00 0.00 0.00 0.00 0.00 0.00 0.00 0.00 0.00 0.00
0.00 0.00 0.00 0.00 0.00 0.00 0.00 0.00 0.00 0.00 0.00 0.00 0.00 0.00 0.00 0.00 0.00 0.00 0.00 0.00 0.00 0.00 0.00 0.00 0.00 0.00 0.00 0.00 0.00 0.00 0.00 0.00 0.00 0.00 0.00 0.00 0.00 0.00 0.00 0.00 0.00 0.00 0.00 0.00
0.00 0.00 0.00 0.00 0.00 0.00 0.00 0.00 0.00 0.00 0.00 0.00 0.00 0.00 0.00 0.00 0.00 0.00 0.00 0.00 0.00 0.00 0.00 0.00 0.00 0.00 0.00 0.00 0.00 0.00 0.00 0.00 0.00 0.00 0.00 0.00 0.00 0.00 0.00 0.00 0.00 0.00 0.00 0.00
0.00 0.00 0.00 0.00 0.00 0.00 0.00 0.00 0.00 0.00 0.00 0.00 0.00 0.00 0.00 0.00 0.00 0.00 0.00 0.00 0.00 0.00 0.00 0.00 0.00 0.00 0.00 0.00 0.00 0.00 0.00 0.00 0.00 0.00 0.00 0.00 0.00 0.00 0.00 0.00 0.00 0.00 0.00 0.00
0.00 0.00 0.00 0.00 0.00 0.00 0.00 0.00 0.00 0.00 0.00 0.00 0.00 0.00 0.00 0.00 0.00 0.00 0.00 0.00 0.00 0.00 0.00 0.00 0.00 0.00 0.00 0.00 0.00 0.00 0.00 0.00 0.00 0.00 0.00 0.00 0.00 0.00 0.00 0.00 0.00 0.00 0.00 0.00
0.00 0.00 0.00 0.00 0.00 0.00 0.00 0.00 0.00 0.00 0.00 0.00 0.00 0.00 0.00 0.00 0.00 0.00 0.00 0.00 0.00 0.00 0.00 0.00 0.00 0.00 0.00 0.00 0.00 0.00 0.00 0.00 0.00 0.00 0.00 0.00 0.00 0.00 0.00 0.00 0.00 0.00 0.00 0.00
0.00 0.00 0.00 0.00 0.00 0.00 0.00 0.00 0.00 0.00 0.00 0.00 0.00 0.00 0.00 0.00 0.00 0.00 0.00 0.00 0.00 0.00 0.00 0.00 0.00 0.00 0.00 0.00 0.00 0.00 0.00 0.00 0.00 0.00 0.00 0.00 0.00 0.00 0.00 0.00 0.00 0.00 0.00 0.00
0.00 0.00 0.00 0.00 0.00 0.00 0.00 0.00 0.00 0.00 0.00 0.00 0.00 0.00 0.00 0.00 0.00 0.00 0.00 0.00 0.00 0.00 0.00 0.00 0.00 0.00 0.00 0.00 0.00 0.00 0.00 0.00 0.00 0.00 0.00 0.00 0.00 0.00 0.00 0.00 0.00 0.00 0.00 0.00
0.00 0.00 0.00 0.00 0.00 0.00 0.00 0.00 0.00 0.00 0.00 0.00 0.00 0.00 0.00 0.00 0.00 0.00 0.00 0.00 0.00 0.00 0.00 0.00 0.00 0.00 0.00 0.00 0.00 0.00 0.00 0.00 0.00 0.00 0.00 0.00 0.00 0.00 0.00 0.00 0.00 0.00 0.00 0.00
0.00 0.00 0.00 0.00 0.00 0.00 0.00 0.00 0.00 0.00 0.00 0.00 0.00 0.00 0.00 0.00 0.00 0.00 0.00 0.00 0.00 0.00 0.00 0.00 0.00 0.00 0.00 0.00 0.00 0.00 0.00 0.00 0.00 0.00 0.00 0.00 0.00 0.00 0.00 0.00 0.00 0.00 0.00 0.00
0.00 0.00 0.00 0.00 0.00 0.00 0.00 0.00 0.00 0.00 0.00 0.00 0.00 0.00 0.00 0.00 0.00 0.00 0.00 0.00 0.00 0.00 0.00 0.00 0.00 0.00 0.00 0.00 0.00 0.00 0.00 0.00 0.00 0.00 0.00 0.00 0.00 0.00 0.00 0.00 0.00 0.00 0.00 0.00
MSLP
1009.03 1008.35 1007.39 1006.88 1006.87 1006.77 1006.58 1005.86 1005.38 1005.53 1006.22 1006.29 1005.53 1005.32 1004.99 1005.43 1005.89 1005.76 1005.77 1006.20 1007.07 1007.82 1008.67 1009.49 1010.79 1011.51 1012.10 1013.07 1014.18 1014.93 1015.74 1016.55 1016.96 1017.27 1017.17 1017.61 1017.76 1018.72 1019.24 1019.52 1020.25 1020.58 1020.73 1020.61
1008.74 1007.67 1006.99 1007.61 1007.86 1007.61 1007.17 1006.54 1005.95 1005.80 1006.55 1006.36 1005.38 1005.40 1005.25 1006.34 1006.34 1006.55 1006.50 1006.55 1007.05 1008.07 1008.98 1010.20 1011.49 1012.17 1013.07 1014.03 1014.83 1015.70 1016.21 1016.83 1017.29 1017.52 1017.55 1017.73 1018.31 1018.57 1019.15 1019.45 1020.08 1020.23 1020.67 1020.77
1007.23 1006.91 1007.37 1007.93 1007.88 1007.63 1007.06 1006.52 1006.16 1006.03 1006.19 1006.27 1005.92 1005.40 1005.72 1006.84 1007.25 1007.79 1008.60 1009.05 1009.44 1009.96 1010.22 1010.91 1012.45 1013.43 1014.22 1014.89 1015.62 1016.29 1016.77 1017.27 1017.68 1017.80 1018.21 1018.52 1018.68 1018.64 1018.53 1019.09 1019.76 1020.06 1020.01 1020.51
1007.03 1007.00 1007.71 1007.61 1007.26 1007.32 1006.46 1006.73 1006.47 1006.21 1006.19 1005.22 1005.75 1004.50 1005.35 1006.42 1007.68 1008.63 1009.37 1010.09 1011.01 1011.32 1011.17 1011.60 1013.20 1014.45 1015.35 1016.11 1016.80 1017.31 1017.81 1018.07 1018.18 1018.35 1018.36 1018.07 1018.00 1018.00 1019.65 1019.59 1020.33 1020.22 1020.10 1020.34
1006.38 1006.86 1007.29 1007.04 1006.89 1007.08 1006.37 1007.02 1006.65 1006.43 1005.95 1005.34 1005.52 1005.69 1005.20 1006.52 1007.35 1008.86 1010.03 1011.10 1012.09 1012.66 1012.75 1013.36 1014.31 1015.49 1016.47 1017.05 1017.66 1018.20 1018.54 1018.81 1019.05 1019.12 1019.22 1019.47 1019.72 1020.08 1020.20 1020.17 1020.06 1019.75 1020.12 1020.14
1006.17 1006.99 1006.81 1006.46 1006.77 1007.19 1007.26 1007.08 1006.70 1006.49 1005.69 1005.56 1005.08 1005.88 1004.52 1005.69 1007.74 1008.86 1010.25 1011.72 1012.85 1013.46 1014.17 1014.92 1015.64 1016.32 1016.94 1017.56 1018.11 1018.75 1019.34 1019.93 1020.34 1020.51 1020.49 1020.37 1020.28 1020.40 1020.52 1020.43 1020.05 1020.00 1019.30 1019.73
1006.35 1006.27 1006.53 1006.57 1006.52 1006.86 1006.86 1006.36 1005.61 1005.64 1005.10 1004.76 1005.68 1006.15 1005.80 1007.40 1008.65 1009.73 1010.74 1012.04 1013.23 1013.93 1014.49 1015.21 1015.85 1016.48 1017.15 1017.87 1018.53 1019.28 1019.92 1020.42 1020.79 1020.79 1020.78 1020.82 1020.88 1021.01 1021.00 1020.17 1019.85 1020.16 1019.69 1019.68
1005.21 1005.32 1005.52 1005.98 1005.91 1005.36 1005.79 1005.45 1004.57 1004.74 1004.28 1004.60 1006.12 1005.78 1006.22 1008.04 1009.46 1010.58 1011.72 1012.63 1013.65 1014.34 1014.82 1015.49 1016.20 1016.87 1017.53 1018.40 1019.04 1019.52 1020.02 1020.35 1020.72 1020.93 1021.13 1021.26 1021.17 1021.02 1020.77 1020.95 1020.39 1020.38 1020.28 1019.88
1004.47 1004.39 1004.89 1005.25 1005.49 1005.45 1005.44 1005.68 1005.34 1005.30 1005.54 1005.28 1004.80 1005.93 1007.40 1008.37 1009.35 1010.41 1011.25 1012.37 1013.49 1014.63 1015.30 1016.05 1016.90 1017.46 1018.06 1018.93 1019.57 1019.87 1020.17 1020.56 1020.99 1021.43 1021.77 1021.86 1021.79 1021.70 1021.54 1020.82 1020.89 1020.40 1020.33 1019.94
1004.59 1004.39 1004.84 1005.26 1005.53 1005.81 1005.34 1005.07 1005.82 1005.81 1005.32 1005.25 1004.51 1005.27 1005.42 1007.22 1008.16 1009.40 1010.47 1011.62 1013.09 1014.53 1015.43 1016.32 1017.03 1018.01 1018.68 1019.45 1019.99 1020.32 1020.61 1021.04 1021.46 1021.47 1021.66 1021.72 1021.69 1021.54 1021.39 1020.99 1020.92 1020.78 1020.31 1020.09
1004.33 1004.69 1004.88 1005.31 1004.83 1004.34 1005.40 1005.13 1005.47 1005.64 1005.55 1005.16 1005.02 1004.55 1005.14 1006.01 1007.31 1008.31 1009.35 1010.69 1012.44 1013.88 1015.19 1016.24 1017.30 1018.29 1018.97 1019.43 1019.85 1020.46 1020.77 1021.12 1021.46 1021.73 1021.80 1021.60 1021.57 1021.53 1021.46 1021.16 1020.98 1020.74 1020.49 1020.14
1004.36 1004.95 1004.22 1004.20 1004.67 1004.90 1004.27 1004.29 1004.70 1005.06 1005.41 1005.77 1005.71 1005.45 1006.26 1006.29 1007.16 1008.06 1008.92 1010.42 1012.04 1013.53 1014.86 1016.20 1017.45 1018.37 1018.94 1019.53 1020.13 1020.77 1021.14 1021.30 1021.81 1021.78 1022.06 1021.61 1021.50 1021.56 1021.46 1021.27 1021.20 1020.75 1020.48 1019.91
1004.46 1004.75 1004.49 1004.24 1004.98 1005.35 1004.85 1004.91 1005.20 1005.38 1005.58 1005.06 1005.46 1005.72 1006.37 1007.15 1007.67 1008.37 1008.94 1010.50 1012.26 1013.59 1014.79 1015.94 1017.28 1018.21 1018.92 1019.65 1020.31 1020.88 1021.28 1021.77 1022.02 1022.27 1022.12 1021.98 1021.55 1021.46 1021.41 1021.31 1021.18 1020.91 1020.38 1019.89
1004.51 1004.27 1004.14 1003.42 1003.13 1003.38 1004.30 1004.64 1004.99 1005.20 1004.94 1004.72 1005.22 1005.20 1006.34 1007.19 1007.71 1008.44 1009.41 1010.63 1012.25 1013.72 1014.99 1015.81 1016.93 1018.10 1018.99 1019.67 1020.35 1021.02 1021.67 1022.32 1022.40 1022.47 1022.16 1021.71 1021.69 1021.48 1021.20 1021.31 1021.13 1020.84 1020.44 1019.94
1004.65 1004.17 1004.12 1003.71 1003.45 1003.56 1003.86 1004.14 1004.67 1004.89 1004.86 1004.97 1004.56 1005.33 1005.59 1006.68 1007.37 1008.10 1009.15 1010.73 1012.22 1013.57 1014.90 1015.96 1016.76 1017.89 1018.98 1019.75 1020.51 1021.26 1022.05 1022.72 1022.45 1022.29 1021.82 1021.71 1021.65 1021.44 1021.13 1021.12 1021.03 1020.71 1020.44 1020.10
1004.77 1004.01 1004.21 1003.88 1004.18 1004.01 1003.92 1003.99 1004.47 1004.68 1005.04 1005.23 1005.61 1005.78 1006.38 1007.56 1008.15 1008.48 1008.95 1010.68 1012.07 1013.28 1014.53 1015.86 1016.69 1017.82 1018.86 1019.74 1020.64 1021.57 1022.40 1022.20 1022.23 1021.90 1021.66 1021.48 1021.44 1021.20 1020.89 1020.90 1020.81 1020.59 1020.40 1020.06
1004.28 1004.23 1004.22 1003.74 1004.36 1004.19 1003.99 1004.10 1004.45 1004.85 1005.11 1005.20 1005.50 1005.90 1007.06 1007.77 1008.46 1008.93 1009.52 1010.71 1011.93 1013.14 1014.46 1015.75 1016.70 1017.88 1018.93 1020.16 1021.07 1022.04 1021.95 1021.98 1021.88 1021.62 1021.39 1021.02 1021.13 1020.96 1020.62 1020.64 1020.53 1020.42 1020.28 1019.98
1003.99 1004.13 1003.84 1003.38 1004.93 1004.53 1004.27 1004.75 1004.95 1005.13 1005.37 1005.77 1006.25 1006.79 1007.60 1008.56 1009.57 1010.22 1010.52 1010.97 1012.10 1013.37 1014.65 1015.78 1016.89 1018.13 1019.48 1020.61 1021.64 1022.00 1022.32 1022.14 1021.64 1021.35 1021.05 1020.80 1020.77 1020.54 1020.41 1020.24 1020.16 1020.21 1020.08 1019.81
1004.06 1003.98 1003.88 1004.15 1004.45 1004.45 1005.42 1005.55 1005.44 1005.35 1005.58 1006.11 1006.49 1007.12 1008.16 1009.12 1009.98 1011.13 1011.97 1012.19 1012.81 1013.94 1015.08 1016.17 1017.30 1018.61 1019.94 1021.10 1021.78 1022.04 1021.91 1021.71 1021.39 1021.12 1020.91 1020.68 1020.66 1020.39 1020.03 1019.73 1019.74 1019.84 1019.70 1019.46
1004.59 1004.61 1004.26 1004.23 1003.74 1003.67 1004.07 1005.33 1005.91 1006.03 1005.60 1005.55 1006.79 1007.36 1008.27 1009.18 1009.42 1011.71 1012.76 1013.32 1014.08 1014.92 1015.92 1017.00 1018.14 1019.43 1020.44 1021.63 1022.09 1021.63 1021.47 1021.28 1021.05 1021.03 1021.03 1020.67 1020.49 1020.29 1019.85 1019.73 1019.60 1019.49 1019.30 1018.77
1004.32 1004.30 1004.13 1004.13 1004.32 1004.10 1004.97 1005.93 1006.47 1006.33 1006.43 1006.83 1007.41 1007.86 1008.71 1009.50 1011.40 1012.94 1013.75 1014.46 1015.18 1015.95 1016.90 1018.08 1019.14 1019.84 1020.93 1021.53 1021.61 1021.74 1021.37 1021.14 1021.28 1021.15 1020.89 1020.53 1020.34 1020.14 1019.87 1019.69 1019.36 1019.15 1018.84 1018.50
1003.90 1004.13 1004.07 1004.20 1004.42 1004.73 1005.63 1006.52 1006.61 1006.89 1007.07 1007.34 1008.08 1008.64 1009.49 1011.14 1012.44 1013.46 1014.43 1015.29 1016.14 1016.95 1017.95 1018.64 1019.54 1020.96 1021.01 1021.51 1021.74 1021.61 1021.33 1021.38 1021.24 1021.05 1020.71 1020.36 1020.15 1019.88 1019.51 1019.37 1019.05 1018.71 1018.49 1018.11
1004.51 1004.25 1004.19 1005.19 1005.16 1005.99 1006.24 1006.71 1007.43 1007.46 1007.35 1007.88 1008.43 1009.29 1010.04 1011.42 1012.61 1013.79 1014.82 1015.72 1016.56 1017.37 1018.16 1019.24 1019.74 1020.67 1021.33 1021.72 1021.77 1021.19 1021.22 1021.23 1021.17 1020.84 1020.48 1020.21 1020.05 1019.62 1019.35 1019.08 1018.71 1018.13 1017.73 1017.47
1005.56 1005.72 1005.16 1006.01 1006.42 1006.55 1007.18 1007.70 1007.95 1008.09 1008.06 1008.64 1009.13 1010.07 1010.91 1011.78 1013.01 1014.02 1014.96 1015.86 1016.76 1017.69 1018.43 1019.29 1020.13 1020.43 1021.27 1021.43 1021.13 1021.11 1021.14 1021.17 1020.98 1020.64 1020.34 1019.98 1019.78 1019.64 1019.08 1018.76 1018.15 1017.87 1017.60 1017.49
1005.32 1006.00 1005.97 1006.14 1006.85 1007.40 1007.65 1008.01 1008.40 1008.85 1009.22 1009.65 1010.14 1010.66 1011.31 1012.17 1013.14 1014.05 1015.01 1015.92 1016.72 1017.68 1018.53 1019.32 1019.94 1020.19 1020.24 1020.69 1020.83 1020.97 1021.04 1021.07 1020.78 1020.58 1020.22 1019.74 1019.33 1019.12 1018.71 1018.32 1018.23 1018.10 1018.26 1018.86
1006.20 1005.89 1006.10 1006.04 1006.63 1007.39 1007.54 1008.57 1009.14 1009.39 1009.75 1010.22 1010.69 1011.39 1012.05 1012.57 1013.41 1014.31 1015.20 1016.09 1016.84 1017.54 1018.23 1018.90 1019.34 1019.84 1020.12 1020.42 1020.67 1020.92 1021.07 1021.09 1020.85 1020.51 1020.01 1019.69 1019.39 1018.78 1018.33 1018.03 1017.80 1018.66 1018.68 1018.88
Thickness
5768 5759 5757 5773 5779 5779 5778 5779 5778 5789 5792 5785 5790 5793 5808 5812 5812 5814 5820 5820 5814 5807 5808 5807 5796 5791 5786 5777 5765 5757 5749 5740 5735 5728 5723 5717 5712 5700 5691 5684 5676 5669 5662 5657
5752 5750 5775 5773 5768 5766 5767 5766 5771 5786 5784 5782 5790 5786 5801 5796 5801 5805 5810 5814 5814 5806 5801 5794 5785 5781 5773 5763 5755 5746 5738 5731 5724 5719 5715 5710 5701 5694 5685 5678 5670 5664 5655 5647
5753 5764 5772 5760 5757 5755 5762 5763 5768 5770 5779 5785 5780 5776 5781 5785 5791 5792 5790 5790 5789 5785 5785 5783 5771 5764 5758 5750 5742 5735 5728 5720 5713 5710 5703 5696 5691 5686 5682 5674 5663 5654 5649 5639
5757 5771 5755 5754 5755 5762 5754 5772 5772 5770 5764 5760 5780 5764 5778 5778 5773 5774 5776 5775 5769 5770 5777 5776 5761 5749 5742 5735 5728 5723 5715 5709 5704 5698 5694 5690 5689 5684 5665 5659 5647 5642 5639 5631
5753 5753 5748 5747 5756 5765 5761 5769 5767 5767 5765 5770 5765 5755 5779 5777 5768 5765 5764 5761 5755 5755 5757 5753 5746 5735 5726 5719 5712 5706 5700 5695 5689 5685 5679 5672 5663 5656 5651 5644 5639 5635 5627 5622
5758 5766 5762 5762 5765 5762 5764 5758 5761 5763 5767 5736 5766 5752 5781 5774 5763 5765 5762 5752 5744 5743 5740 5734 5729 5722 5715 5709 5702 5694 5686 5677 5669 5664 5660 5656 5651 5643 5638 5633 5630 5624 5626 5614
5742 5750 5760 5764 5752 5759 5756 5750 5736 5728 5737 5739 5756 5745 5763 5761 5759 5755 5751 5743 5736 5735 5732 5726 5718 5713 5706 5698 5691 5682 5672 5664 5658 5653 5648 5642 5636 5629 5623 5625 5622 5614 5613 5605
5727 5721 5751 5762 5755 5754 5752 5757 5747 5714 5736 5750 5747 5735 5753 5758 5751 5746 5739 5735 5728 5725 5725 5718 5712 5705 5697 5687 5679 5672 5663 5657 5650 5643 5636 5628 5623 5620 5617 5610 5608 5603 5599 5596
5732 5733 5760 5761 5763 5762 5747 5736 5764 5741 5745 5736 5759 5749 5747 5748 5742 5738 5737 5731 5723 5715 5712 5706 5699 5693 5685 5676 5667 5662 5656 5648 5639 5630 5621 5613 5609 5604 5600 5602 5596 5596 5591 5588
5741 5722 5747 5749 5756 5752 5751 5766 5728 5736 5709 5703 5746 5739 5746 5741 5743 5740 5735 5730 5720 5709 5703 5695 5690 5680 5674 5665 5658 5652 5645 5635 5626 5621 5613 5605 5600 5598 5594 5592 5589 5585 5583 5579
5747 5733 5729 5739 5737 5741 5736 5738 5741 5740 5735 5717 5715 5743 5765 5756 5751 5744 5742 5735 5721 5708 5698 5689 5681 5672 5666 5661 5654 5644 5636 5628 5618 5610 5603 5598 5594 5590 5586 5584 5582 5578 5574 5571
5745 5728 5720 5734 5745 5751 5755 5749 5747 5724 5719 5726 5724 5731 5751 5756 5752 5747 5742 5732 5721 5708 5697 5685 5675 5666 5660 5653 5644 5634 5625 5619 5607 5601 5592 5590 5587 5583 5579 5576 5574 5571 5569 5566
5736 5719 5706 5714 5725 5735 5732 5739 5740 5738 5734 5723 5709 5721 5745 5742 5738 5737 5734 5724 5710 5701 5691 5682 5672 5662 5654 5645 5637 5627 5618 5607 5598 5588 5585 5580 5579 5575 5572 5569 5567 5565 5563 5560
5734 5725 5716 5711 5729 5742 5721 5729 5733 5729 5719 5726 5720 5734 5727 5727 5726 5727 5723 5718 5704 5693 5683 5678 5669 5658 5648 5639 5630 5620 5608 5597 5589 5580 5577 5574 5570 5568 5567 5563 5561 5560 5557 5553
5723 5708 5722 5732 5738 5737 5730 5728 5726 5720 5729 5714 5734 5723 5733 5731 5729 5727 5723 5711 5696 5687 5678 5670 5664 5654 5642 5633 5623 5612 5599 5585 5582 5575 5573 5568 5563 5564 5562 5559 5558 5555 5550 5546
5714 5708 5716 5713 5722 5726 5719 5728 5725 5725 5722 5722 5718 5715 5730 5724 5721 5718 5718 5703 5691 5684 5676 5666 5659 5648 5637 5627 5616 5603 5586 5584 5578 5573 5569 5567 5562 5560 5559 5557 5554 5550 5545 5540
5706 5704 5703 5699 5711 5714 5701 5713 5717 5717 5721 5720 5703 5716 5719 5713 5709 5708 5705 5697 5688 5680 5672 5661 5653 5642 5631 5617 5605 5590 5587 5580 5575 5571 5568 5565 5560 5558 5558 5555 5551 5546 5541 5535
5700 5701 5710 5707 5691 5670 5710 5718 5719 5711 5713 5715 5709 5709 5708 5702 5696 5694 5695 5692 5683 5675 5665 5656 5646 5634 5620 5607 5593 5585 5576 5573 5571 5567 5565 5562 5559 5557 5556 5553 5548 5543 5537 5532
5702 5700 5689 5680 5682 5696 5687 5695 5700 5698 5696 5709 5703 5702 5698 5693 5689 5676 5677 5680 5676 5667 5658 5647 5637 5624 5609 5595 5585 5576 5574 5571 5567 5564 5561 5559 5556 5555 5554 5551 5547 5541 5535 5530
5686 5690 5688 5684 5682 5671 5704 5698 5706 5703 5682 5709 5701 5695 5691 5689 5684 5665 5665 5665 5659 5653 5645 5633 5622 5609 5597 5581 5573 5575 5572 5568 5563 5559 5555 5555 5553 5551 5550 5547 5543 5538 5533 5529
5666 5674 5671 5675 5674 5693 5691 5690 5694 5665 5675 5693 5691 5690 5685 5680 5668 5656 5653 5649 5645 5639 5629 5618 5606 5597 5584 5574 5571 5566 5565 5562 5555 5552 5551 5551 5549 5547 5546 5542 5540 5536 5531 5526
5661 5659 5663 5676 5666 5660 5685 5679 5669 5679 5686 5688 5683 5681 5675 5662 5654 5649 5642 5636 5630 5622 5612 5606 5595 5577 5577 5568 5562 5559 5557 5553 5550 5548 5547 5547 5546 5545 5544 5540 5539 5534 5529 5525
5650 5666 5667 5660 5667 5668 5678 5676 5677 5680 5681 5679 5678 5673 5670 5657 5648 5641 5633 5626 5620 5612 5605 5593 5587 5575 5565 5558 5555 5557 5551 5547 5544 5544 5543 5543 5542 5542 5540 5538 5536 5534 5531 5528
5644 5652 5656 5651 5652 5659 5662 5666 5669 5672 5673 5671 5671 5662 5657 5649 5640 5632 5626 5619 5611 5602 5595 5586 5576 5570 5557 5555 5555 5550 5545 5541 5539 5539 5539 5540 5540 5537 5538 5536 5536 5532 5530 5525
5644 5643 5643 5646 5648 5650 5654 5658 5660 5659 5660 5657 5656 5652 5648 5641 5633 5626 5619 5611 5605 5596 5587 5579 5570 5566 5564 5556 5551 5544 5539 5534 5534 5534 5536 5537 5539 5537 5535 5535 5531 5526 5521 5509
5632 5635 5637 5638 5648 5647 5649 5648 5647 5647 5647 5647 5644 5638 5636 5633 5624 5618 5610 5604 5597 5590 5583 5576 5570 5564 5559 5553 5546 5539 5533 5529 5529 5531 5535 5535 5535 5535 5535 5532 5530 5516 5511 5505